Погода в Глафировке

Россия / Краснодарский край     46°45′44″N   38°24′35″E
темп.,
°C
ветер,
м/с
пор.,
м/с
влажн.,
%
обл.,
%
осадки,
мм/ч
давл.,
гПа
погр.,
м
11 апреля, вс
вс1100:00+9ссв3467100 0.0 102269
03:00+9ссв4772100 0.0 1021176
06:00+8ссв6127199 0.0 1022478
09:00+8ссв6137271 0.1 1022629
12:00+11св81170100 0.0 1021826
15:00+10всв71179100 0.0 1021539
18:00+10всв51084100 0.0 1020528
21:00+9св5987100 0.0 1020360
12 апреля, пн
пн1200:00+9св4890100 0.1 1019228
03:00+9с238992 0.1 101956
06:00+9з2391100 0.3 101950
09:00+10з3392100 0.8 1020215
12:00+10зюз4592100 0.1 1020360
15:00+10з2387100 0.2 1021306
18:00+10зсз2289100 0.0 102299
21:00+9з2387100 0.0 102243
13 апреля, вт
вт1300:00+9зсз2285100 0.0 102237
03:00+9з2384100 0.0 102246
06:00+9з2387100 0.1 102265
09:00+9зюз2288100 0.2 102298
12:00+9юз2287100 0.3 1022204
15:00+11юз1276100 0.3 1022481
18:00+11ссз2281100 0.0 102243
21:00+9ссз228797 0.0 102121
14 апреля, ср
ср1400:00+9ссз228978 0.0 102013
03:00+9сз2388100 0.0 101957
06:00+9ссз2387100 0.1 101949
09:00+9зсз2393100 2.3 1019101
12:00+9зсз3491100 1.1 1018177
15:00+10з2387100 1.1 1018186
18:00+10з118492 0.0 101854
21:00+9зюз338473 0.0 101724
15 апреля, чт
чт1500:00+8з22878 0.0 101712
03:00+8юв118840 0.0 101710
06:00+8вюв118797 0.0 101610
09:00+11вюв1178100 0.0 1016171
12:00+14всв226560 0.0 1015597
15:00+16ссв026082 0.0 1014784
18:00+10з6895100 2.8 1015250
21:00+10зсз119589 4.9 101488